CNH021 UKRB-UKLH

Flight info

Callsign CNH021
Flight time N/A
Altitude 12000
Route 511102N0325255E BAH UKBB SLV
Aircraft AN24/M-SDE2E3FGHIJ1RWXY/LB1

Departure

Time N/A
Airport UKRB

Arrival

Time 2026-04-17 09:46
Airport Khmelnytskyi Airport (UKLH)
Time Latitude Longitude Altitude Speed Heading
2026-04-17 08:41 51.02607 32.25425 4360 ft 222 kts 238°
2026-04-17 08:41 51.02075 32.24126 4501 ft 221 kts 237°
2026-04-17 08:41 51.01241 32.22138 4892 ft 213 kts 238°
2026-04-17 08:41 51.01023 32.21593 4968 ft 212 kts 239°
2026-04-17 08:42 51.00754 32.20912 5035 ft 213 kts 239°
2026-04-17 08:42 51.00531 32.20336 5122 ft 212 kts 240°
2026-04-17 08:42 50.99678 32.18374 5256 ft 218 kts 232°
2026-04-17 08:42 50.99351 32.17738 5355 ft 216 kts 232°
2026-04-17 08:43 50.98500 32.16067 5626 ft 214 kts 233°
2026-04-17 08:43 50.97612 32.14211 5913 ft 211 kts 236°
2026-04-17 08:43 50.96746 32.12244 5908 ft 222 kts 234°
2026-04-17 08:43 50.95802 32.10332 6174 ft 220 kts 232°
2026-04-17 08:44 50.94849 32.08389 6381 ft 221 kts 233°
2026-04-17 08:44 50.93912 32.06541 6703 ft 217 kts 232°
2026-04-17 08:44 50.92938 32.04623 6695 ft 228 kts 233°
2026-04-17 08:44 50.91950 32.02658 7034 ft 225 kts 232°
2026-04-17 08:45 50.90945 32.00767 7381 ft 226 kts 232°
2026-04-17 08:45 50.89953 31.98827 7631 ft 230 kts 232°
2026-04-17 08:45 50.89658 31.98263 7706 ft 232 kts 231°
2026-04-17 08:45 50.88748 31.96586 7983 ft 232 kts 230°
2026-04-17 08:46 50.87682 31.94694 8356 ft 231 kts 229°
2026-04-17 08:46 50.86618 31.92769 8672 ft 232 kts 231°
2026-04-17 08:46 50.85601 31.90807 8943 ft 235 kts 232°
2026-04-17 08:46 50.84566 31.88789 9266 ft 235 kts 232°
2026-04-17 08:47 50.83533 31.86774 9530 ft 238 kts 232°
2026-04-17 08:47 50.82487 31.84736 9806 ft 240 kts 232°
2026-04-17 08:47 50.81434 31.82689 10087 ft 242 kts 232°
2026-04-17 08:47 50.80368 31.80615 10375 ft 243 kts 232°
2026-04-17 08:48 50.79302 31.78542 10662 ft 244 kts 232°
2026-04-17 08:48 50.78231 31.76455 10947 ft 245 kts 232°
2026-04-17 08:48 50.77158 31.74364 11233 ft 245 kts 232°
2026-04-17 08:48 50.76097 31.72294 11515 ft 246 kts 232°
2026-04-17 08:49 50.75017 31.70189 11802 ft 246 kts 232°
2026-04-17 08:49 50.73938 31.68083 12088 ft 246 kts 232°
2026-04-17 08:49 50.72868 31.65993 12371 ft 247 kts 232°
2026-04-17 08:49 50.71789 31.63887 12655 ft 247 kts 232°
2026-04-17 08:50 50.70713 31.61793 12935 ft 246 kts 232°
2026-04-17 08:50 50.69622 31.59678 13216 ft 246 kts 232°
2026-04-17 08:50 50.68545 31.57597 13491 ft 246 kts 232°
2026-04-17 08:50 50.67466 31.55520 13764 ft 246 kts 232°
2026-04-17 08:51 50.66381 31.53438 14034 ft 245 kts 232°
2026-04-17 08:51 50.65299 31.51367 14300 ft 245 kts 232°
2026-04-17 08:51 50.64224 31.49316 14560 ft 244 kts 232°
2026-04-17 08:51 50.63128 31.47230 14821 ft 244 kts 232°
2026-04-17 08:52 50.62051 31.45183 15066 ft 244 kts 232°
2026-04-17 08:52 50.60947 31.43087 14974 ft 258 kts 232°
2026-04-17 08:52 50.59755 31.40822 14733 ft 276 kts 232°
2026-04-17 08:52 50.58491 31.38415 14127 ft 303 kts 232°
2026-04-17 08:53 50.57112 31.35775 13525 ft 322 kts 232°
2026-04-17 08:53 50.55659 31.32972 12849 ft 335 kts 231°
2026-04-17 08:53 50.54195 31.30128 12352 ft 331 kts 231°
2026-04-17 08:53 50.52797 31.27403 12352 ft 314 kts 231°
2026-04-17 08:54 50.51463 31.24750 12295 ft 303 kts 233°
2026-04-17 08:54 50.50307 31.22086 12373 ft 289 kts 237°
2026-04-17 08:54 50.49039 31.19713 12352 ft 282 kts 225°
2026-04-17 08:54 50.47681 31.17564 12236 ft 279 kts 227°
2026-04-17 08:55 50.46362 31.15388 12341 ft 268 kts 226°
2026-04-17 08:55 50.45069 31.13324 12383 ft 262 kts 225°
2026-04-17 08:55 50.43764 31.11304 12304 ft 262 kts 225°
2026-04-17 08:55 50.42482 31.09345 12326 ft 257 kts 225°
2026-04-17 08:56 50.41210 31.07399 12365 ft 253 kts 225°
2026-04-17 08:56 50.39961 31.05481 12347 ft 252 kts 225°
2026-04-17 08:56 50.38714 31.03563 12333 ft 251 kts 225°
2026-04-17 08:56 50.37467 31.01644 12341 ft 249 kts 225°
2026-04-17 08:57 50.36246 30.99766 12334 ft 248 kts 225°
2026-04-17 08:57 50.35020 30.97884 12342 ft 246 kts 225°
2026-04-17 08:57 50.33794 30.96003 12335 ft 246 kts 225°
2026-04-17 08:57 50.32578 30.94141 12344 ft 245 kts 225°
2026-04-17 08:58 50.31382 30.92257 12335 ft 244 kts 231°
2026-04-17 08:58 50.30505 30.90000 12389 ft 240 kts 249°
2026-04-17 08:58 50.30127 30.87477 12318 ft 241 kts 267°
2026-04-17 08:58 50.30112 30.84872 12306 ft 240 kts 265°
2026-04-17 08:59 50.29861 30.82296 12392 ft 237 kts 263°
2026-04-17 08:59 50.29632 30.79745 12324 ft 240 kts 263°
2026-04-17 08:59 50.29390 30.77146 12313 ft 240 kts 262°
2026-04-17 08:59 50.29135 30.74595 12337 ft 239 kts 262°
2026-04-17 09:00 50.28865 30.72003 12336 ft 239 kts 262°
2026-04-17 09:00 50.28600 30.69467 12345 ft 238 kts 262°
2026-04-17 09:00 50.28334 30.66908 12335 ft 239 kts 262°
2026-04-17 09:00 50.28071 30.64359 12344 ft 238 kts 262°
2026-04-17 09:01 50.27809 30.61799 12338 ft 238 kts 262°
2026-04-17 09:01 50.27546 30.59225 12340 ft 238 kts 262°
2026-04-17 09:01 50.27285 30.56674 12342 ft 238 kts 262°
2026-04-17 09:01 50.27023 30.54115 12335 ft 238 kts 262°
2026-04-17 09:02 50.26760 30.51554 12347 ft 238 kts 262°
2026-04-17 09:02 50.26498 30.49003 12334 ft 239 kts 262°
2026-04-17 09:02 50.26233 30.46435 12349 ft 238 kts 262°
2026-04-17 09:02 50.25969 30.43892 12335 ft 239 kts 262°
2026-04-17 09:03 50.25702 30.41318 12345 ft 238 kts 262°
2026-04-17 09:03 50.25438 30.38782 12339 ft 238 kts 262°
2026-04-17 09:03 50.25174 30.36238 12338 ft 238 kts 262°
2026-04-17 09:03 50.24903 30.33633 12328 ft 239 kts 261°
2026-04-17 09:04 50.24636 30.31042 12297 ft 240 kts 261°
2026-04-17 09:04 50.24376 30.28509 12369 ft 237 kts 261°
2026-04-17 09:04 50.24115 30.25960 12350 ft 238 kts 261°
2026-04-17 09:04 50.23851 30.23406 12296 ft 240 kts 261°
2026-04-17 09:05 50.23584 30.20825 12359 ft 237 kts 261°
2026-04-17 09:05 50.23322 30.18304 12368 ft 237 kts 261°
2026-04-17 09:05 50.23055 30.15739 12303 ft 240 kts 261°
2026-04-17 09:05 50.22786 30.13158 12344 ft 238 kts 261°
2026-04-17 09:06 50.22523 30.10628 12381 ft 237 kts 261°
2026-04-17 09:06 50.22257 30.08072 12311 ft 240 kts 261°
2026-04-17 09:06 50.21989 30.05499 12327 ft 239 kts 262°
2026-04-17 09:06 50.21792 30.02944 12404 ft 235 kts 264°
2026-04-17 09:07 50.21610 30.00369 12326 ft 239 kts 264°
2026-04-17 09:07 50.21424 29.97769 12305 ft 240 kts 264°
2026-04-17 09:07 50.21246 29.95206 12375 ft 237 kts 265°
2026-04-17 09:07 50.21072 29.92619 12343 ft 239 kts 265°
2026-04-17 09:08 50.20900 29.90052 12293 ft 241 kts 265°
2026-04-17 09:08 50.20724 29.87426 12257 ft 242 kts 265°
2026-04-17 09:08 50.20548 29.84828 12227 ft 243 kts 265°
2026-04-17 09:08 50.20369 29.82192 12200 ft 243 kts 265°
2026-04-17 09:09 50.20191 29.79575 12204 ft 242 kts 265°
2026-04-17 09:09 50.20012 29.76949 12213 ft 242 kts 265°
2026-04-17 09:09 50.19833 29.74329 12203 ft 242 kts 265°
2026-04-17 09:09 50.19657 29.71733 12218 ft 241 kts 265°
2026-04-17 09:10 50.19305 29.66603 12192 ft 234 kts 265°
2026-04-17 09:10 50.19133 29.64101 12203 ft 230 kts 265°
2026-04-17 09:10 50.18964 29.61612 12206 ft 227 kts 265°
2026-04-17 09:11 50.18797 29.59167 12204 ft 225 kts 265°
2026-04-17 09:11 50.18632 29.56756 12207 ft 223 kts 265°
2026-04-17 09:11 50.18621 29.56594 12208 ft 223 kts 265°
2026-04-17 09:11 50.18491 29.54408 12205 ft 221 kts 272°
2026-04-17 09:12 50.18839 29.52118 12201 ft 216 kts 299°
2026-04-17 09:12 50.19816 29.50400 12202 ft 213 kts 327°
2026-04-17 09:12 50.21147 29.49392 12228 ft 210 kts 333°
2026-04-17 09:12 50.22247 29.47981 12231 ft 209 kts 307°
2026-04-17 09:13 50.22812 29.45892 12210 ft 209 kts 279°
2026-04-17 09:13 50.22682 29.43658 12212 ft 209 kts 251°
2026-04-17 09:13 50.21890 29.41773 12202 ft 210 kts 223°
2026-04-17 09:13 50.20624 29.40710 12203 ft 210 kts 194°
2026-04-17 09:14 50.19181 29.40728 12203 ft 209 kts 164°
2026-04-17 09:14 50.17789 29.41348 12247 ft 206 kts 173°
2026-04-17 09:14 50.16347 29.41464 12211 ft 209 kts 176°
2026-04-17 09:14 50.14893 29.41637 12149 ft 212 kts 176°
2026-04-17 09:15 50.13425 29.41802 12205 ft 209 kts 178°
2026-04-17 09:15 50.11979 29.41909 12223 ft 208 kts 179°
2026-04-17 09:15 50.10545 29.41975 12209 ft 209 kts 179°
2026-04-17 09:15 50.09071 29.42001 12217 ft 209 kts 184°
2026-04-17 09:16 50.07671 29.41634 12250 ft 207 kts 198°
2026-04-17 09:16 50.06332 29.40747 12196 ft 209 kts 211°
2026-04-17 09:16 50.05170 29.39389 12184 ft 208 kts 225°
2026-04-17 09:16 50.04267 29.37656 12243 ft 204 kts 240°
2026-04-17 09:17 50.03664 29.35658 12240 ft 204 kts 248°
2026-04-17 09:17 50.03093 29.33590 12183 ft 208 kts 247°
2026-04-17 09:17 50.02528 29.31525 12200 ft 206 kts 248°
2026-04-17 09:17 50.01975 29.29473 12248 ft 204 kts 248°
2026-04-17 09:18 50.01431 29.27445 12248 ft 205 kts 248°
2026-04-17 09:18 50.00883 29.25393 12239 ft 205 kts 248°
2026-04-17 09:18 50.00336 29.23343 12239 ft 206 kts 248°
2026-04-17 09:18 49.99787 29.21286 12237 ft 206 kts 248°
2026-04-17 09:19 49.99240 29.19237 12247 ft 206 kts 248°
2026-04-17 09:19 49.98693 29.17181 12239 ft 206 kts 248°
2026-04-17 09:19 49.98145 29.15120 12252 ft 206 kts 248°
2026-04-17 09:19 49.97596 29.13055 12244 ft 207 kts 248°
2026-04-17 09:20 49.97052 29.10997 12255 ft 206 kts 248°
2026-04-17 09:20 49.96507 29.08938 12249 ft 207 kts 248°
2026-04-17 09:20 49.95960 29.06873 12257 ft 206 kts 248°
2026-04-17 09:20 49.95409 29.04790 12258 ft 207 kts 248°
2026-04-17 09:21 49.94867 29.02735 12258 ft 207 kts 248°
2026-04-17 09:21 49.94324 29.00677 12275 ft 206 kts 248°
2026-04-17 09:21 49.93775 28.98589 12266 ft 207 kts 248°
2026-04-17 09:21 49.93239 28.96543 12281 ft 206 kts 248°
2026-04-17 09:22 49.92703 28.94483 12277 ft 206 kts 248°
2026-04-17 09:22 49.92170 28.92417 12284 ft 205 kts 248°
2026-04-17 09:22 49.91642 28.90350 12286 ft 205 kts 249°
2026-04-17 09:22 49.91122 28.88287 12286 ft 205 kts 249°
2026-04-17 09:23 49.90607 28.86220 12292 ft 205 kts 249°
2026-04-17 09:23 49.90102 28.84174 12283 ft 205 kts 249°
2026-04-17 09:23 49.89588 28.82089 12286 ft 205 kts 248°
2026-04-17 09:23 49.89070 28.80029 12287 ft 205 kts 248°
2026-04-17 09:24 49.88559 28.77985 12300 ft 204 kts 249°
2026-04-17 09:24 49.88045 28.75901 12286 ft 205 kts 249°
2026-04-17 09:24 49.87545 28.73854 12298 ft 204 kts 249°
2026-04-17 09:24 49.87039 28.71777 12289 ft 205 kts 249°
2026-04-17 09:25 49.86533 28.69707 12293 ft 205 kts 249°
2026-04-17 09:25 49.86032 28.67656 12296 ft 205 kts 249°
2026-04-17 09:25 49.85522 28.65576 12288 ft 205 kts 249°
2026-04-17 09:25 49.85015 28.63510 12300 ft 204 kts 249°
2026-04-17 09:26 49.84507 28.61444 12289 ft 205 kts 249°
2026-04-17 09:26 49.84003 28.59393 12302 ft 204 kts 249°
2026-04-17 09:26 49.83496 28.57337 12294 ft 205 kts 249°
2026-04-17 09:26 49.82987 28.55270 12297 ft 205 kts 249°
2026-04-17 09:27 49.82478 28.53202 12302 ft 205 kts 249°
2026-04-17 09:27 49.81974 28.51151 12294 ft 205 kts 249°
2026-04-17 09:27 49.81464 28.49082 12303 ft 204 kts 249°
2026-04-17 09:27 49.80957 28.47024 12291 ft 205 kts 249°
2026-04-17 09:28 49.80453 28.44984 12303 ft 204 kts 249°
2026-04-17 09:28 49.79941 28.42909 12293 ft 205 kts 249°
2026-04-17 09:28 49.79430 28.40840 12302 ft 205 kts 249°
2026-04-17 09:28 49.78927 28.38807 12300 ft 205 kts 249°
2026-04-17 09:29 49.78416 28.36741 12295 ft 205 kts 249°
2026-04-17 09:29 49.77919 28.34731 12304 ft 205 kts 248°
2026-04-17 09:29 49.77409 28.32655 12256 ft 207 kts 248°
2026-04-17 09:29 49.76897 28.30566 12299 ft 205 kts 248°
2026-04-17 09:30 49.76399 28.28532 12337 ft 203 kts 248°
2026-04-17 09:30 49.75892 28.26463 12279 ft 206 kts 248°
2026-04-17 09:30 49.75382 28.24392 12268 ft 206 kts 248°
2026-04-17 09:30 49.74872 28.22327 12330 ft 203 kts 248°
2026-04-17 09:31 49.74369 28.20287 12309 ft 205 kts 248°
2026-04-17 09:31 49.73855 28.18203 12260 ft 207 kts 248°
2026-04-17 09:31 49.73348 28.16154 12307 ft 205 kts 248°
2026-04-17 09:31 49.72841 28.14099 12336 ft 203 kts 248°
2026-04-17 09:32 49.72330 28.12029 12275 ft 207 kts 248°
2026-04-17 09:32 49.71818 28.09959 12274 ft 206 kts 248°
2026-04-17 09:32 49.71312 28.07914 12333 ft 203 kts 248°
2026-04-17 09:32 49.70802 28.05850 12301 ft 206 kts 248°
2026-04-17 09:33 49.70287 28.03768 12254 ft 208 kts 248°
2026-04-17 09:33 49.69772 28.01691 12304 ft 205 kts 248°
2026-04-17 09:33 49.69270 27.99637 12312 ft 205 kts 249°
2026-04-17 09:33 49.68769 27.97565 12309 ft 205 kts 249°
2026-04-17 09:34 49.68269 27.95503 12323 ft 205 kts 249°
2026-04-17 09:34 49.67765 27.93436 12320 ft 205 kts 249°
2026-04-17 09:34 49.67310 27.91354 12312 ft 206 kts 253°
2026-04-17 09:34 49.66890 27.89242 12268 ft 208 kts 251°
2026-04-17 09:35 49.66416 27.87091 12010 ft 210 kts 250°
2026-04-17 09:35 49.65946 27.84995 11649 ft 205 kts 250°
2026-04-17 09:35 49.65487 27.82944 11279 ft 202 kts 251°
2026-04-17 09:35 49.65035 27.80921 10900 ft 198 kts 250°
2026-04-17 09:36 49.64488 27.78955 10591 ft 203 kts 243°
2026-04-17 09:36 49.63734 27.77055 10370 ft 213 kts 231°
2026-04-17 09:36 49.62765 27.75294 10192 ft 219 kts 232°
2026-04-17 09:36 49.61806 27.73420 9990 ft 226 kts 231°
2026-04-17 09:37 49.60807 27.71539 9811 ft 231 kts 230°
2026-04-17 09:37 49.59742 27.69633 9646 ft 234 kts 229°
2026-04-17 09:37 49.58670 27.67759 9459 ft 238 kts 229°
2026-04-17 09:37 49.57556 27.65816 9244 ft 242 kts 229°
2026-04-17 09:38 49.56450 27.63876 9044 ft 245 kts 229°
2026-04-17 09:38 49.55304 27.61871 8862 ft 257 kts 229°
2026-04-17 09:38 49.54051 27.59714 8757 ft 282 kts 229°
2026-04-17 09:38 49.52717 27.57392 8570 ft 292 kts 230°
2026-04-17 09:39 49.51423 27.55084 8255 ft 280 kts 230°
2026-04-17 09:39 49.50178 27.52879 7920 ft 263 kts 229°
2026-04-17 09:39 49.49010 27.50836 7571 ft 250 kts 229°
2026-04-17 09:39 49.47890 27.48886 7202 ft 239 kts 229°
2026-04-17 09:40 49.46807 27.47000 6816 ft 230 kts 229°
2026-04-17 09:40 49.45769 27.45193 6424 ft 225 kts 229°
2026-04-17 09:40 49.44736 27.43393 6027 ft 218 kts 229°
2026-04-17 09:40 49.43753 27.41698 5628 ft 213 kts 229°
2026-04-17 09:41 49.42783 27.40010 5225 ft 209 kts 229°
2026-04-17 09:41 49.41869 27.38367 4869 ft 202 kts 230°
2026-04-17 09:41 49.40982 27.36763 4546 ft 196 kts 231°
2026-04-17 09:41 49.40124 27.35179 4275 ft 184 kts 232°
2026-04-17 09:42 49.39408 27.33732 4051 ft 174 kts 233°
2026-04-17 09:42 49.38718 27.32264 3736 ft 168 kts 234°
2026-04-17 09:42 49.38099 27.30888 3640 ft 146 kts 236°
2026-04-17 09:42 49.37590 27.29754 3592 ft 112 kts 237°
2026-04-17 09:43 49.37227 27.28591 3292 ft 129 kts 248°
2026-04-17 09:43 49.36764 27.27421 3215 ft 125 kts 229°
2026-04-17 09:43 49.36122 27.26546 2978 ft 124 kts 214°
2026-04-17 09:43 49.35413 27.25803 2761 ft 121 kts 219°
2026-04-17 09:44 49.34992 27.24996 2532 ft 120 kts 246°
2026-04-17 09:44 49.34393 27.21455 2336 ft 109 kts 263°
2026-04-17 09:44 49.30819 26.97236 2008 ft 127 kts 315°
2026-04-17 09:44 49.31671 26.96755 1906 ft 133 kts 351°
2026-04-17 09:45 49.32507 26.96223 1457 ft 138 kts 320°
2026-04-17 09:45 49.33217 26.95351 1502 ft 130 kts 323°
2026-04-17 09:45 49.33915 26.94512 1360 ft 126 kts 325°
2026-04-17 09:45 49.34689 26.93857 1215 ft 123 kts 341°
2026-04-17 09:46 49.35484 26.93540 1148 ft 112 kts 347°
2026-04-17 09:46 49.36095 26.93299 1152 ft 68 kts 342°
2026-04-17 09:46 49.36459 26.93152 1148 ft 43 kts 346°
2026-04-17 09:46 49.36699 26.93064 1148 ft 31 kts 346°
2026-04-17 09:47 49.36847 26.93052 1148 ft 6 kts 10°
2026-04-17 09:47 49.36864 26.93057 1148 ft 5 kts
2026-04-17 09:47 49.36865 26.92986 1148 ft 10 kts 180°
2026-04-17 09:47 49.36755 26.93033 1148 ft 28 kts 164°
2026-04-17 09:48 49.36530 26.93120 1148 ft 30 kts 165°
2026-04-17 09:48 49.36371 26.93179 1148 ft 17 kts 168°
2026-04-17 09:48 49.36256 26.93220 1150 ft 21 kts 165°
2026-04-17 09:48 49.36136 26.93270 1151 ft 12 kts 165°
2026-04-17 09:49 49.36087 26.93292 1151 ft 4 kts 165°
2026-04-17 09:49 49.36006 26.93325 1151 ft 9 kts 165°
2026-04-17 09:49 49.35924 26.93359 1151 ft 17 kts 163°
2026-04-17 09:49 49.35876 26.93440 1149 ft 9 kts 97°
2026-04-17 09:50 49.35885 26.93541 1149 ft 0 kts 76°
2026-04-17 09:50 49.35889 26.93570 1149 ft 7 kts 73°
2026-04-17 09:51 49.35927 26.93667 1151 ft 14 kts 44°
2026-04-17 09:51 49.35987 26.93708 1153 ft 4 kts
2026-04-17 09:51 49.36005 26.93711 1153 ft 3 kts
2026-04-17 09:51 49.36010 26.93710 1153 ft 0 kts